Monday, February 25, 2013

Avoca, PA
on Saturday, October 6, 2012

Saturday
Previous Day Next Day
Daily Summary
 ActualAverageRecord
Temperature
Mean Temperature °F 54°F  
Max Temperature 66°F 64°F 87°F (1922)
Min Temperature 41°F 44°F 26°F (1958)
Degree Days
Heating Degree Days 11 11  
Month to date heating degree days 26 61  
Since 1 July heating degree days 143 223  
Cooling Degree Days 0 0  
Month to date cooling degree days 3 0  
Year to date cooling degree days 864 576  
Growing Degree Days6 (Base °F )  
Moisture
Dew Point 50°F   
Average Humidity 80    
Maximum Humidity 96    
Minimum Humidity 63    
Precipitation
Precipitation 0.05 in 0.12 in 2.30 in (1932)
Month to date precipitation 0.97 0.69  
Year to date precipitation 28.32 29.79  
Wind
Wind Speed 4 mph   
Max Wind Speed 16 mph   
Max Gust Speed 21 mph   
Visibility 8 miles   
Events Rain   

Key: T is trace of precipitation, MM is missing value
Source: NWS Daily Summary
Time(EDT)TemperatureDew PointHumidity Pressure Visibility Wind DirectionWind SpeedGust SpeedPrecipitationEvents Conditions
12:54 AM 57.9°F 55.0°F 90% 29.89 in 7.0 miles Calm Calm - N/A   Clear
1:54 AM 57.9°F 55.0°F 90% 29.88 in 8.0 miles Calm Calm - N/A   Clear
2:54 AM 57.9°F 54.0°F 87% 29.86 in 8.0 miles Calm Calm - N/A   Clear
3:54 AM 57.9°F 54.0°F 87% 29.83 in 8.0 miles Calm Calm - N/A   Clear
4:54 AM 60.1°F 54.0°F 80% 29.81 in 10.0 miles Calm Calm - N/A   Clear
5:54 AM 62.1°F 53.1°F 72% 29.79 in 10.0 miles West 5.8 mph - N/A   Clear
6:54 AM 63.0°F 53.1°F 70% 29.79 in 10.0 miles SSW 5.8 mph - N/A   Mostly Cloudy
7:54 AM 62.1°F 53.1°F 72% 29.80 in 9.0 miles SSW 3.5 mph - N/A   Partly Cloudy
8:54 AM 66.0°F 54.0°F 65% 29.78 in 10.0 miles SW 5.8 mph - N/A   Mostly Cloudy
9:54 AM 63.0°F 55.0°F 75% 29.79 in 8.0 miles SSW 3.5 mph - 0.00 in Rain Light Rain
10:54 AM 64.9°F 55.9°F 73% 29.80 in 9.0 miles SW 9.2 mph - 0.00 in   Overcast
11:45 AM 64.4°F 55.4°F 73% 29.82 in 8.0 miles West 13.8 mph - N/A   Overcast
11:54 AM 63.0°F 55.0°F 75% 29.82 in 9.0 miles NW 13.8 mph - N/A   Overcast
12:05 PM 57.2°F 51.8°F 82% 29.84 in 10.0 miles NNW 11.5 mph - N/A   Overcast
12:15 PM 55.4°F 51.8°F 88% 29.85 in 3.0 miles NNW 12.7 mph - 0.00 in Rain Light Rain
12:23 PM 55.4°F 51.8°F 88% 29.85 in 2.0 miles NNW 6.9 mph - 0.00 in Rain Light Rain
12:30 PM 55.4°F 51.8°F 88% 29.86 in 3.0 miles North 6.9 mph - 0.01 in Rain Light Rain
12:41 PM 53.6°F 51.8°F 94% 29.87 in 2.5 miles NNW 9.2 mph - 0.01 in Rain Rain
12:51 PM 53.6°F 50.0°F 88% 29.87 in 1.8 miles Variable 5.8 mph - 0.04 in Rain Rain
12:54 PM 54.0°F 50.0°F 86% 29.87 in 2.0 miles NNW 8.1 mph - 0.04 in Rain Light Rain
1:09 PM 53.6°F 48.2°F 82% 29.88 in 9.0 miles Variable 3.5 mph - 0.01 in Rain Light Rain
1:54 PM 53.1°F 48.9°F 86% 29.88 in 8.0 miles North 8.1 mph - 0.01 in Rain Light Rain
2:30 PM 53.6°F 48.2°F 82% 29.90 in 10.0 miles WNW 6.9 mph - 0.00 in   Overcast
2:54 PM 53.1°F 46.9°F 80% 29.90 in 10.0 miles NNW 8.1 mph 18.4 mph 0.00 in   Overcast
3:32 PM 53.6°F 46.4°F 77% 29.92 in 10.0 miles West 3.5 mph - N/A   Overcast
3:54 PM 54.0°F 46.0°F 75% 29.91 in 10.0 miles West 3.5 mph - N/A   Overcast
4:25 PM 53.6°F 48.2°F 82% 29.91 in 10.0 miles Calm Calm - N/A   Overcast
4:43 PM 55.4°F 46.4°F 72% 29.91 in 10.0 miles NNW 8.1 mph - N/A   Overcast
4:54 PM 55.0°F 45.0°F 69% 29.91 in 10.0 miles NW 8.1 mph - N/A   Overcast
5:54 PM 55.9°F 44.1°F 64% 29.91 in 10.0 miles NNW 5.8 mph - N/A   Scattered Clouds
6:54 PM 51.1°F 45.0°F 80% 29.94 in 10.0 miles Calm Calm - N/A   Clear
7:54 PM 48.0°F 45.0°F 89% 29.96 in 10.0 miles Calm Calm - N/A   Partly Cloudy
8:54 PM 46.9°F 44.1°F 90% 29.99 in 10.0 miles Calm Calm - N/A   Clear
9:54 PM 45.0°F 43.0°F 93% 30.01 in 10.0 miles Calm Calm - N/A   Partly Cloudy
10:54 PM 45.0°F 42.1°F 90% 30.02 in 9.0 miles Calm Calm - N/A   Clear
11:54 PM 43.0°F 41.0°F 93% 30.04 in 9.0 miles South 3.5 mph - N/A   Clear
Astronomy
Sunrise:07:05 AM (EDT) Moon Rise:10:46 PM (EDT)10/6
Sunset:06:35 PM (EDT) Moon Set:01:01 PM (EDT)10/6
Moon Phase
Oct. 06 Oct. 08 Oct. 15 Oct. 21 Oct. 29

Copyright © 2014 The Weather Underground, Inc.
8,